AZA506 LIMC-LATI

Flight info

Callsign AZA506
Flight time 1h 20m
Altitude 37000
Route ROBAS DCT IPDAB DCT IBENI DCT MOKUN DCT TIBRI DCT PETAK
Aircraft MD82/M-SDFGIRWY/S

Departure

Time 2026-05-09 08:09
Airport Milan Malpensa International Airport (LIMC)

Arrival

Time 2026-05-09 09:29
Airport Tirana International Airport Mother Teresa (LATI)
Time Latitude Longitude Altitude Speed Heading
2026-05-09 07:54 45.62237 8.71850 750 ft 0 kts 169°
2026-05-09 07:59 45.62253 8.71845 749 ft 3 kts 169°
2026-05-09 08:00 45.62275 8.71839 750 ft 3 kts 168°
2026-05-09 08:00 45.62295 8.71833 748 ft 2 kts 168°
2026-05-09 08:00 45.62313 8.71824 748 ft 3 kts 137°
2026-05-09 08:00 45.62321 8.71803 749 ft 3 kts 95°
2026-05-09 08:01 45.62320 8.71773 750 ft 3 kts 79°
2026-05-09 08:01 45.62318 8.71765 751 ft 0 kts 79°
2026-05-09 08:02 45.62322 8.71792 749 ft 8 kts 79°
2026-05-09 08:03 45.62320 8.71900 750 ft 14 kts 124°
2026-05-09 08:03 45.62217 8.71949 750 ft 19 kts 169°
2026-05-09 08:03 45.62072 8.71990 752 ft 24 kts 169°
2026-05-09 08:03 45.61898 8.72038 753 ft 27 kts 169°
2026-05-09 08:04 45.61714 8.72089 753 ft 27 kts 169°
2026-05-09 08:04 45.61534 8.72139 753 ft 26 kts 169°
2026-05-09 08:04 45.61356 8.72189 749 ft 26 kts 169°
2026-05-09 08:04 45.61181 8.72236 749 ft 25 kts 169°
2026-05-09 08:05 45.61048 8.72320 751 ft 19 kts 112°
2026-05-09 08:05 45.61048 8.72440 753 ft 19 kts 79°
2026-05-09 08:05 45.61073 8.72625 748 ft 19 kts 79°
2026-05-09 08:05 45.61099 8.72825 745 ft 21 kts 79°
2026-05-09 08:06 45.61131 8.73017 748 ft 18 kts 65°
2026-05-09 08:06 45.61220 8.73134 751 ft 17 kts 34°
2026-05-09 08:06 45.61321 8.73230 753 ft 17 kts 33°
2026-05-09 08:06 45.61434 8.73259 752 ft 17 kts 348°
2026-05-09 08:07 45.61550 8.73225 752 ft 17 kts 349°
2026-05-09 08:07 45.61628 8.73308 754 ft 16 kts 70°
2026-05-09 08:07 45.61620 8.73456 752 ft 16 kts 116°
2026-05-09 08:07 45.61581 8.73596 751 ft 16 kts 88°
2026-05-09 08:08 45.61640 8.73739 746 ft 16 kts 357°
2026-05-09 08:08 45.61768 8.73701 745 ft 26 kts 347°
2026-05-09 08:08 45.62142 8.73592 745 ft 88 kts 349°
2026-05-09 08:08 45.62961 8.73370 744 ft 149 kts 351°
2026-05-09 08:09 45.64094 8.73110 1140 ft 170 kts 351°
2026-05-09 08:09 45.65243 8.72900 2050 ft 166 kts 355°
2026-05-09 08:09 45.66371 8.72771 2632 ft 172 kts 357°
2026-05-09 08:09 45.67596 8.72704 3132 ft 184 kts 358°
2026-05-09 08:10 45.68930 8.72649 3643 ft 198 kts 358°
2026-05-09 08:10 45.70375 8.72587 4067 ft 217 kts 357°
2026-05-09 08:10 45.71937 8.72398 4497 ft 234 kts 345°
2026-05-09 08:10 45.73477 8.71488 4987 ft 247 kts 325°
2026-05-09 08:11 45.74780 8.69830 5618 ft 255 kts 305°
2026-05-09 08:11 45.75391 8.67482 6322 ft 257 kts 267°
2026-05-09 08:11 45.74881 8.65051 6747 ft 272 kts 232°
2026-05-09 08:11 45.73395 8.63239 6975 ft 294 kts 203°
2026-05-09 08:12 45.69270 8.63879 7549 ft 330 kts 142°
2026-05-09 08:12 45.67731 8.66331 8204 ft 334 kts 125°
2026-05-09 08:12 45.66453 8.69133 8824 ft 338 kts 123°
2026-05-09 08:13 45.65208 8.72011 9472 ft 342 kts 122°
2026-05-09 08:13 45.63982 8.74944 10131 ft 345 kts 121°
2026-05-09 08:13 45.62748 8.77905 10696 ft 349 kts 122°
2026-05-09 08:13 45.61473 8.80887 11288 ft 352 kts 123°
2026-05-09 08:14 45.60155 8.83854 11889 ft 356 kts 123°
2026-05-09 08:14 45.58817 8.86853 12446 ft 360 kts 123°
2026-05-09 08:14 45.57463 8.89880 13001 ft 364 kts 124°
2026-05-09 08:14 45.56079 8.92931 13596 ft 367 kts 124°
2026-05-09 08:15 45.54679 8.95989 14151 ft 370 kts 124°
2026-05-09 08:15 45.53278 8.99043 14638 ft 375 kts 124°
2026-05-09 08:15 45.51848 9.02163 15191 ft 377 kts 124°
2026-05-09 08:15 45.50406 9.05316 15720 ft 381 kts 124°
2026-05-09 08:16 45.48954 9.08500 16235 ft 384 kts 124°
2026-05-09 08:16 45.47488 9.11718 16745 ft 388 kts 124°
2026-05-09 08:16 45.46011 9.14961 17262 ft 392 kts 125°
2026-05-09 08:16 45.44513 9.18228 17778 ft 395 kts 125°
2026-05-09 08:17 45.42994 9.21519 18323 ft 399 kts 125°
2026-05-09 08:17 45.41463 9.24833 18740 ft 403 kts 126°
2026-05-09 08:17 45.39931 9.28149 19120 ft 408 kts 126°
2026-05-09 08:17 45.38355 9.31561 19369 ft 417 kts 126°
2026-05-09 08:18 45.36755 9.35026 19775 ft 420 kts 126°
2026-05-09 08:18 45.35150 9.38507 20274 ft 422 kts 126°
2026-05-09 08:18 45.33534 9.42014 20663 ft 427 kts 126°
2026-05-09 08:18 45.31898 9.45565 21035 ft 432 kts 126°
2026-05-09 08:19 45.30243 9.49152 21449 ft 435 kts 126°
2026-05-09 08:19 45.28577 9.52765 21856 ft 439 kts 126°
2026-05-09 08:19 45.26894 9.56410 22235 ft 444 kts 126°
2026-05-09 08:19 45.25192 9.60090 22579 ft 448 kts 126°
2026-05-09 08:20 45.23475 9.63803 22976 ft 452 kts 126°
2026-05-09 08:20 45.21767 9.67493 23354 ft 455 kts 126°
2026-05-09 08:20 45.20024 9.71276 23653 ft 461 kts 124°
2026-05-09 08:20 45.18658 9.75431 23954 ft 468 kts 110°
2026-05-09 08:21 45.17696 9.79849 24358 ft 470 kts 107°
2026-05-09 08:21 45.16845 9.84280 24672 ft 474 kts 106°
2026-05-09 08:21 45.15995 9.88814 24962 ft 477 kts 106°
2026-05-09 08:21 45.15133 9.93369 25298 ft 480 kts 106°
2026-05-09 08:22 45.14246 9.97938 25638 ft 482 kts 107°
2026-05-09 08:22 45.13328 10.02525 25890 ft 486 kts 107°
2026-05-09 08:22 45.12382 10.07151 26172 ft 490 kts 107°
2026-05-09 08:22 45.11424 10.11795 26524 ft 492 kts 108°
2026-05-09 08:23 45.10461 10.16452 26831 ft 495 kts 107°
2026-05-09 08:23 45.09494 10.21137 27109 ft 498 kts 107°
2026-05-09 08:23 45.08523 10.25864 27437 ft 500 kts 107°
2026-05-09 08:23 45.07549 10.30614 27758 ft 503 kts 108°
2026-05-09 08:24 45.06537 10.35369 28056 ft 506 kts 108°
2026-05-09 08:24 45.05507 10.40077 28379 ft 508 kts 108°
2026-05-09 08:24 45.04470 10.44857 28807 ft 508 kts 108°
2026-05-09 08:24 45.03469 10.49563 29267 ft 507 kts 108°
2026-05-09 08:25 45.02472 10.54336 29714 ft 506 kts 108°
2026-05-09 08:25 45.01487 10.59104 30156 ft 505 kts 108°
2026-05-09 08:25 45.00505 10.63876 30488 ft 506 kts 108°
2026-05-09 08:25 44.99519 10.68664 30760 ft 507 kts 108°
2026-05-09 08:26 44.98528 10.73459 31032 ft 509 kts 108°
2026-05-09 08:26 44.97532 10.78260 31358 ft 509 kts 108°
2026-05-09 08:26 44.96536 10.83046 31707 ft 508 kts 108°
2026-05-09 08:26 44.95423 10.87787 31973 ft 508 kts 113°
2026-05-09 08:27 44.94110 10.92369 32227 ft 509 kts 115°
2026-05-09 08:27 44.92702 10.96964 32489 ft 510 kts 116°
2026-05-09 08:27 44.91281 11.01573 32732 ft 512 kts 116°
2026-05-09 08:27 44.89880 11.06189 33003 ft 512 kts 115°
2026-05-09 08:28 44.88498 11.10832 33290 ft 512 kts 115°
2026-05-09 08:28 44.87137 11.15477 33561 ft 513 kts 115°
2026-05-09 08:28 44.85782 11.20140 33806 ft 514 kts 115°
2026-05-09 08:28 44.84445 11.24751 34031 ft 515 kts 115°
2026-05-09 08:29 44.83086 11.29429 34237 ft 516 kts 115°
2026-05-09 08:29 44.81725 11.34095 34504 ft 514 kts 115°
2026-05-09 08:29 44.80369 11.38735 34816 ft 511 kts 115°
2026-05-09 08:29 44.79008 11.43356 35082 ft 510 kts 115°
2026-05-09 08:30 44.77630 11.47956 35335 ft 508 kts 115°
2026-05-09 08:30 44.76248 11.52536 35597 ft 507 kts 115°
2026-05-09 08:30 44.74878 11.57089 35872 ft 505 kts 115°
2026-05-09 08:30 44.73516 11.61634 36130 ft 503 kts 115°
2026-05-09 08:31 44.72164 11.66155 36381 ft 501 kts 115°
2026-05-09 08:31 44.70833 11.70614 36648 ft 499 kts 115°
2026-05-09 08:31 44.69492 11.75100 36902 ft 497 kts 115°
2026-05-09 08:31 44.68148 11.79594 37021 ft 499 kts 115°
2026-05-09 08:32 44.65431 11.88641 37097 ft 505 kts 115°
2026-05-09 08:33 44.61319 12.02259 37110 ft 506 kts 115°
2026-05-09 08:33 44.58545 12.11296 37113 ft 503 kts 115°
2026-05-09 08:34 44.55782 12.20294 37114 ft 501 kts 115°
2026-05-09 08:34 44.53026 12.29308 37117 ft 503 kts 115°
2026-05-09 08:35 44.50269 12.38345 37113 ft 506 kts 115°
2026-05-09 08:35 44.47485 12.47426 37113 ft 508 kts 115°
2026-05-09 08:36 44.44672 12.56458 37109 ft 504 kts 115°
2026-05-09 08:36 44.41878 12.65369 37119 ft 502 kts 115°
2026-05-09 08:37 44.39074 12.74332 37116 ft 504 kts 115°
2026-05-09 08:37 44.36267 12.83318 37109 ft 505 kts 115°
2026-05-09 08:38 44.33452 12.92316 37107 ft 504 kts 115°
2026-05-09 08:38 44.30645 13.01289 37102 ft 503 kts 115°
2026-05-09 08:39 44.27829 13.10159 37106 ft 502 kts 116°
2026-05-09 08:39 44.24971 13.19069 37102 ft 502 kts 115°
2026-05-09 08:40 44.22138 13.27933 37098 ft 499 kts 115°
2026-05-09 08:40 44.19311 13.36802 37102 ft 503 kts 115°
2026-05-09 08:41 44.16452 13.45762 37102 ft 508 kts 115°
2026-05-09 08:41 44.13578 13.54728 37101 ft 504 kts 116°
2026-05-09 08:42 44.10566 13.63433 37103 ft 500 kts 117°
2026-05-09 08:42 44.07650 13.72226 37104 ft 502 kts 115°
2026-05-09 08:43 44.04864 13.81154 37104 ft 504 kts 114°
2026-05-09 08:43 44.02081 13.90096 37107 ft 502 kts 114°
2026-05-09 08:44 43.99279 13.98915 37098 ft 495 kts 115°
2026-05-09 08:44 43.96474 14.07569 37100 ft 495 kts 115°
2026-05-09 08:45 43.93681 14.16332 37103 ft 498 kts 114°
2026-05-09 08:45 43.90902 14.25162 37095 ft 498 kts 114°
2026-05-09 08:46 43.88140 14.33930 37099 ft 495 kts 114°
2026-05-09 08:46 43.85397 14.42602 37098 ft 494 kts 115°
2026-05-09 08:47 43.82614 14.51322 37096 ft 495 kts 115°
2026-05-09 08:47 43.79790 14.60029 37095 ft 496 kts 115°
2026-05-09 08:48 43.76960 14.68754 37092 ft 497 kts 115°
2026-05-09 08:48 43.74134 14.77497 37092 ft 497 kts 115°
2026-05-09 08:49 43.71338 14.86148 37091 ft 495 kts 115°
2026-05-09 08:49 43.68526 14.94835 37100 ft 494 kts 115°
2026-05-09 08:50 43.65742 15.03381 37091 ft 488 kts 115°
2026-05-09 08:50 43.62919 15.11899 37087 ft 488 kts 116°
2026-05-09 08:51 43.60087 15.20441 37088 ft 490 kts 115°
2026-05-09 08:51 43.57245 15.29027 37074 ft 494 kts 115°
2026-05-09 08:52 43.54400 15.37664 37073 ft 493 kts 115°
2026-05-09 08:52 43.51587 15.46176 37074 ft 489 kts 115°
2026-05-09 08:53 43.48756 15.54691 37077 ft 490 kts 116°
2026-05-09 08:53 43.45873 15.63222 37081 ft 491 kts 116°
2026-05-09 08:54 43.42998 15.71730 37072 ft 487 kts 116°
2026-05-09 08:54 43.40164 15.80134 37071 ft 482 kts 116°
2026-05-09 08:55 43.37354 15.88469 37074 ft 484 kts 116°
2026-05-09 08:55 43.34974 15.95520 37071 ft 486 kts 116°
2026-05-09 08:56 43.32143 16.03896 37068 ft 485 kts 116°
2026-05-09 08:56 43.29279 16.12243 37071 ft 481 kts 116°
2026-05-09 08:57 43.26411 16.20547 37072 ft 480 kts 117°
2026-05-09 08:57 43.23542 16.28870 37076 ft 485 kts 116°
2026-05-09 08:58 43.20674 16.37222 37082 ft 487 kts 116°
2026-05-09 08:58 43.17802 16.45583 37086 ft 481 kts 116°
2026-05-09 08:59 43.14957 16.53834 37088 ft 478 kts 117°
2026-05-09 08:59 43.12086 16.62062 37089 ft 480 kts 117°
2026-05-09 09:00 43.09182 16.70310 37076 ft 481 kts 117°
2026-05-09 09:00 43.06304 16.78502 37075 ft 480 kts 117°
2026-05-09 09:01 43.03431 16.86714 37075 ft 478 kts 117°
2026-05-09 09:01 43.00556 16.94911 37064 ft 478 kts 117°
2026-05-09 09:02 42.97673 17.03117 37067 ft 479 kts 117°
2026-05-09 09:02 42.94774 17.11313 37067 ft 477 kts 117°
2026-05-09 09:03 42.91869 17.19411 37062 ft 473 kts 117°
2026-05-09 09:03 42.88989 17.27436 37056 ft 477 kts 117°
2026-05-09 09:04 42.86069 17.35617 37061 ft 482 kts 117°
2026-05-09 09:04 42.83146 17.43813 37060 ft 479 kts 117°
2026-05-09 09:05 42.80243 17.51929 37053 ft 473 kts 117°
2026-05-09 09:05 42.77355 17.59964 37060 ft 473 kts 117°
2026-05-09 09:06 42.74421 17.68004 37048 ft 476 kts 118°
2026-05-09 09:06 42.71475 17.76074 37041 ft 477 kts 118°
2026-05-09 09:07 42.68545 17.84127 37042 ft 473 kts 117°
2026-05-09 09:07 42.65619 17.92167 36588 ft 478 kts 118°
2026-05-09 09:07 42.64148 17.96206 36203 ft 472 kts 117°
2026-05-09 09:08 42.62703 18.00177 35826 ft 465 kts 118°
2026-05-09 09:08 42.61281 18.04079 35444 ft 457 kts 118°
2026-05-09 09:08 42.59872 18.07913 35081 ft 450 kts 120°
2026-05-09 09:08 42.58407 18.11538 34727 ft 443 kts 121°
2026-05-09 09:09 42.56918 18.15164 34360 ft 437 kts 120°
2026-05-09 09:09 42.55492 18.18798 33997 ft 435 kts 119°
2026-05-09 09:09 42.54129 18.22463 33592 ft 434 kts 117°
2026-05-09 09:09 42.52811 18.26138 33189 ft 432 kts 117°
2026-05-09 09:10 42.51515 18.29824 32781 ft 430 kts 117°
2026-05-09 09:10 42.50237 18.33480 32392 ft 427 kts 117°
2026-05-09 09:10 42.48967 18.37111 32013 ft 425 kts 117°
2026-05-09 09:10 42.47718 18.40672 31637 ft 422 kts 117°
2026-05-09 09:11 42.46460 18.44243 31261 ft 418 kts 117°
2026-05-09 09:11 42.45196 18.47759 30887 ft 413 kts 121°
2026-05-09 09:11 42.43637 18.50996 30532 ft 409 kts 129°
2026-05-09 09:11 42.41907 18.54044 30162 ft 407 kts 130°
2026-05-09 09:12 42.40028 18.56869 29760 ft 402 kts 140°
2026-05-09 09:12 42.37936 18.59377 29341 ft 400 kts 142°
2026-05-09 09:12 42.35812 18.61790 28936 ft 398 kts 142°
2026-05-09 09:12 42.33698 18.64200 28520 ft 397 kts 142°
2026-05-09 09:13 42.31659 18.66711 28050 ft 396 kts 138°
2026-05-09 09:13 42.29721 18.69378 27285 ft 401 kts 135°
2026-05-09 09:13 42.27794 18.72154 26315 ft 409 kts 135°
2026-05-09 09:13 42.25852 18.74984 25211 ft 413 kts 134°
2026-05-09 09:14 42.23883 18.77846 24056 ft 418 kts 135°
2026-05-09 09:14 42.21882 18.80730 22796 ft 423 kts 135°
2026-05-09 09:14 42.19873 18.83594 21850 ft 416 kts 135°
2026-05-09 09:14 42.17898 18.86389 21027 ft 407 kts 135°
2026-05-09 09:15 42.15984 18.89081 20191 ft 399 kts 135°
2026-05-09 09:15 42.14073 18.91762 19330 ft 393 kts 134°
2026-05-09 09:15 42.12191 18.94394 18501 ft 387 kts 134°
2026-05-09 09:15 42.10341 18.96983 17587 ft 380 kts 134°
2026-05-09 09:16 42.08526 18.99525 16700 ft 374 kts 134°
2026-05-09 09:16 42.04986 19.04483 14970 ft 361 kts 133°
2026-05-09 09:16 42.03250 19.06905 14121 ft 356 kts 133°
2026-05-09 09:17 42.01544 19.09277 13227 ft 350 kts 133°
2026-05-09 09:17 41.99863 19.11617 12295 ft 346 kts 134°
2026-05-09 09:17 41.98211 19.13926 11494 ft 338 kts 134°
2026-05-09 09:17 41.96602 19.16148 10679 ft 333 kts 134°
2026-05-09 09:18 41.95015 19.18333 10275 ft 317 kts 134°
2026-05-09 09:18 41.93537 19.20394 10000 ft 297 kts 134°
2026-05-09 09:18 41.92140 19.22345 9612 ft 284 kts 134°
2026-05-09 09:18 41.90767 19.24246 9006 ft 281 kts 134°
2026-05-09 09:19 41.89408 19.26117 8375 ft 279 kts 134°
2026-05-09 09:19 41.88059 19.27972 7810 ft 277 kts 134°
2026-05-09 09:19 41.86726 19.29808 7435 ft 272 kts 133°
2026-05-09 09:19 41.85419 19.31611 7102 ft 269 kts 133°
2026-05-09 09:20 41.84132 19.33388 6801 ft 269 kts 133°
2026-05-09 09:20 41.82828 19.35192 6515 ft 270 kts 133°
2026-05-09 09:20 41.81523 19.36996 6217 ft 270 kts 133°
2026-05-09 09:20 41.80218 19.38800 5912 ft 269 kts 133°
2026-05-09 09:21 41.78916 19.40598 5599 ft 268 kts 133°
2026-05-09 09:21 41.77619 19.42387 5297 ft 266 kts 133°
2026-05-09 09:21 41.76335 19.44156 4993 ft 264 kts 133°
2026-05-09 09:21 41.75055 19.45909 4686 ft 262 kts 134°
2026-05-09 09:22 41.73784 19.47641 4369 ft 260 kts 135°
2026-05-09 09:22 41.72520 19.49355 4076 ft 258 kts 135°
2026-05-09 09:22 41.71255 19.51071 3753 ft 258 kts 135°
2026-05-09 09:22 41.69998 19.52784 3498 ft 257 kts 135°
2026-05-09 09:23 41.68736 19.54481 3339 ft 256 kts 136°
2026-05-09 09:23 41.67502 19.56207 3147 ft 254 kts 134°
2026-05-09 09:23 41.66313 19.57850 3194 ft 244 kts 135°
2026-05-09 09:23 41.65183 19.59487 2968 ft 243 kts 131°
2026-05-09 09:24 41.64019 19.61137 2839 ft 240 kts 138°
2026-05-09 09:24 41.62814 19.62590 2780 ft 225 kts 139°
2026-05-09 09:24 41.61712 19.63989 2695 ft 213 kts 135°
2026-05-09 09:24 41.60735 19.65374 2756 ft 197 kts 134°
2026-05-09 09:25 41.59770 19.66712 2877 ft 201 kts 135°
2026-05-09 09:25 41.58789 19.68050 2914 ft 201 kts 135°
2026-05-09 09:25 41.57826 19.69372 2939 ft 201 kts 140°
2026-05-09 09:25 41.56564 19.70042 2945 ft 200 kts 176°
2026-05-09 09:26 41.55153 19.70213 2680 ft 204 kts 174°
2026-05-09 09:26 41.53754 19.70437 2356 ft 201 kts 176°
2026-05-09 09:26 41.52374 19.70608 2044 ft 197 kts 175°
2026-05-09 09:26 41.51032 19.70787 1772 ft 188 kts 175°
2026-05-09 09:27 41.49795 19.70956 1517 ft 172 kts 176°
2026-05-09 09:27 41.48644 19.71102 1270 ft 159 kts 176°
2026-05-09 09:27 41.47595 19.71239 1072 ft 145 kts 176°
2026-05-09 09:27 41.46610 19.71371 871 ft 140 kts 175°
2026-05-09 09:28 41.45646 19.71499 685 ft 139 kts 175°
2026-05-09 09:28 41.44668 19.71645 570 ft 144 kts 174°
2026-05-09 09:28 41.43678 19.71762 399 ft 142 kts 175°
2026-05-09 09:28 41.42678 19.71898 170 ft 147 kts 175°
2026-05-09 09:29 41.41726 19.72024 126 ft 120 kts 173°
2026-05-09 09:29 41.41040 19.72117 132 ft 88 kts 174°
2026-05-09 09:29 41.40490 19.72188 132 ft 52 kts 174°
2026-05-09 09:29 41.40316 19.72207 133 ft 18 kts 184°
2026-05-09 09:30 41.40243 19.72110 133 ft 16 kts 261°
2026-05-09 09:30 41.40249 19.71959 133 ft 17 kts 304°
2026-05-09 09:30 41.40339 19.71857 133 ft 17 kts 322°
2026-05-09 09:30 41.40449 19.71790 133 ft 18 kts 355°
2026-05-09 09:31 41.40575 19.71774 133 ft 19 kts 354°
2026-05-09 09:31 41.40705 19.71755 133 ft 19 kts 354°
2026-05-09 09:31 41.40839 19.71729 132 ft 20 kts 350°
2026-05-09 09:32 41.41117 19.71683 132 ft 21 kts 354°
2026-05-09 09:32 41.41261 19.71664 132 ft 21 kts 354°
2026-05-09 09:32 41.41407 19.71645 132 ft 21 kts 354°
2026-05-09 09:32 41.41556 19.71625 132 ft 22 kts 354°
2026-05-09 09:33 41.41707 19.71606 132 ft 22 kts 354°
2026-05-09 09:33 41.41800 19.71593 132 ft 4 kts 355°
2026-05-09 09:33 41.41833 19.71589 132 ft 6 kts 355°
2026-05-09 09:33 41.41877 19.71584 132 ft 7 kts 355°
2026-05-09 09:34 41.41931 19.71577 132 ft 8 kts 354°
2026-05-09 09:34 41.41994 19.71569 132 ft 10 kts 354°
2026-05-09 09:34 41.42066 19.71559 132 ft 10 kts 354°
2026-05-09 09:36 41.42106 19.71482 132 ft 0 kts 264°